| time (UTC) | temp F | wind direction | speed MPH | gust MPH | rain 1hr in | rain 24hr in | rain mn in | humidity % | barometer mb |
| 20260902210039 | 100 | 134 | 7.0 | 14.0 | 0.00 | 0.00 | 0.00 | 38 | 1010.9 |
| 20260902204551 | 99 | 244 | 7.0 | 15.0 | 0.00 | 0.00 | 0.00 | 39 | 1010.9 |
| 20260902203035 | 99 | 195 | 10.0 | 17.0 | 0.00 | 0.00 | 0.00 | 39 | 1011.1 |
| 20260902201540 | 99 | 166 | 7.0 | 16.0 | 0.00 | 0.00 | 0.00 | 39 | 1011.3 |
| 20260902200036 | 99 | 197 | 9.0 | 19.0 | 0.00 | 0.00 | 0.00 | 40 | 1011.5 |
| 20260902194546 | 98 | 172 | 5.0 | 17.0 | 0.00 | 0.00 | 0.00 | 42 | 1011.8 |
| 20260902193028 | 98 | 170 | 7.0 | 17.0 | 0.00 | 0.00 | 0.00 | 42 | 1011.9 |
| 20260902191535 | 99 | 162 | 4.0 | 14.0 | 0.00 | 0.00 | 0.00 | 43 | 1012.0 |
| 20260902190022 | 98 | 176 | 7.0 | 14.0 | 0.00 | 0.00 | 0.00 | 45 | 1012.2 |
| 20260902184521 | 97 | 160 | 7.0 | 13.0 | 0.00 | 0.00 | 0.00 | 46 | 1012.5 |
| 20260902183019 | 96 | 205 | 8.0 | 13.0 | 0.00 | 0.00 | 0.00 | 47 | 1012.6 |
| 20260902181516 | 95 | 166 | 8.0 | 16.0 | 0.00 | 0.00 | 0.00 | 47 | 1012.8 |
| 20260902180016 | 95 | 266 | 9.0 | 16.0 | 0.00 | 0.00 | 0.00 | 48 | 1013.0 |
| 20260902174513 | 95 | 182 | 8.0 | 19.0 | 0.00 | 0.00 | 0.00 | 49 | 1013.1 |
| 20260902173012 | 94 | 155 | 4.0 | 15.0 | 0.00 | 0.00 | 0.00 | 50 | 1013.3 |
| 20260902171512 | 93 | 155 | 6.0 | 14.0 | 0.00 | 0.00 | 0.00 | 51 | 1013.4 |
| 20260902170009 | 92 | 225 | 10.0 | 18.0 | 0.00 | 0.00 | 0.00 | 52 | 1013.6 |
| 20260902164507 | 93 | 195 | 5.0 | 16.0 | 0.00 | 0.00 | 0.00 | 52 | 1013.6 |
| 20260902163004 | 91 | 214 | 9.0 | 14.0 | 0.00 | 0.00 | 0.00 | 53 | 1013.8 |
| 20260902161503 | 90 | 178 | 7.0 | 14.0 | 0.00 | 0.00 | 0.00 | 55 | 1013.7 |
| 20260902160110 | 89 | 131 | 4.0 | 13.0 | 0.00 | 0.00 | 0.00 | 57 | 1013.7 |
| 20260902154600 | 88 | 198 | 8.0 | 14.0 | 0.00 | 0.00 | 0.00 | 57 | 1013.7 |
| 20260902153054 | 87 | 180 | 4.0 | 14.0 | 0.00 | 0.00 | 0.00 | 60 | 1013.7 |
| 20260902151553 | 85 | 206 | 10.0 | 17.0 | 0.00 | 0.00 | 0.00 | 61 | 1013.6 |
| 20260902150049 | 84 | 222 | 8.0 | 14.0 | 0.00 | 0.00 | 0.00 | 62 | 1013.7 |
| 20260902144553 | 84 | 193 | 5.0 | 18.0 | 0.00 | 0.00 | 0.00 | 62 | 1013.7 |
| 20260902143046 | 83 | 163 | 8.0 | 16.0 | 0.00 | 0.00 | 0.00 | 62 | 1013.8 |
| 20260902141548 | 83 | 162 | 6.0 | 12.0 | 0.00 | 0.00 | 0.00 | 63 | 1014.0 |
| 20260902140046 | 83 | 162 | 6.0 | 10.0 | 0.00 | 0.00 | 0.00 | 63 | 1013.9 |
| 20260902134548 | 81 | 131 | 6.0 | 13.0 | 0.00 | 0.00 | 0.00 | 66 | 1013.9 |
| 20260902133044 | 80 | 158 | 7.0 | 13.0 | 0.00 | 0.00 | 0.00 | 66 | 1013.9 |
| 20260902131603 | 80 | 199 | 5.0 | 11.0 | 0.00 | 0.00 | 0.00 | 67 | 1013.9 |
| 20260902130052 | 79 | 156 | 4.0 | 10.0 | 0.00 | 0.00 | 0.00 | 68 | 1013.7 |
| 20260902124541 | 78 | 153 | 3.0 | 7.0 | 0.00 | 0.00 | 0.00 | 70 | 1013.7 |
| 20260902123041 | 75 | 182 | 1.0 | 6.0 | 0.00 | 0.00 | 0.00 | 76 | 1013.8 |
| 20260902121545 | 75 | 87 | 0.0 | 2.0 | 0.00 | 0.00 | 0.00 | 76 | 1013.5 |
| 20260902120037 | 76 | 86 | 0.0 | 3.0 | 0.00 | 0.00 | 0.00 | 74 | 1013.5 |
| 20260902114535 | 77 | 82 | 0.0 | 3.0 | 0.00 | 0.00 | 0.00 | 72 | 1013.4 |
| 20260902113034 | 77 | 133 | 1.0 | 5.0 | 0.00 | 0.00 | 0.00 | 69 | 1013.2 |
| 20260902111537 | 77 | 151 | 1.0 | 4.0 | 0.00 | 0.00 | 0.00 | 70 | 1013.3 |
| 20260902110043 | 77 | 147 | 1.0 | 3.0 | 0.00 | 0.00 | 0.00 | 70 | 1013.2 |
| 20260902104539 | 76 | 205 | 1.0 | 3.0 | 0.00 | 0.00 | 0.00 | 74 | 1013.3 |
| 20260902103034 | 76 | 126 | 0.0 | 1.0 | 0.00 | 0.00 | 0.00 | 75 | 1013.2 |
| 20260902101527 | 77 | 110 | 0.0 | 3.0 | 0.00 | 0.00 | 0.00 | 72 | 1013.1 |
| 20260902100027 | 78 | 148 | 0.0 | 3.0 | 0.00 | 0.00 | 0.00 | 68 | 1013.1 |
| 20260902094526 | 78 | 158 | 1.0 | 4.0 | 0.00 | 0.00 | 0.00 | 67 | 1013.0 |
| 20260902093035 | 77 | 127 | 0.0 | 3.0 | 0.00 | 0.00 | 0.00 | 72 | 1012.8 |
| 20260902091521 | 78 | 124 | 1.0 | 2.0 | 0.00 | 0.00 | 0.00 | 70 | 1012.7 |
| 20260902090018 | 80 | 101 | 1.0 | 5.0 | 0.00 | 0.00 | 0.00 | 64 | 1012.7 |
| 20260902084514 | 80 | 154 | 2.0 | 4.0 | 0.00 | 0.00 | 0.00 | 62 | 1012.6 |
| 20260902083012 | 81 | 170 | 2.0 | 8.0 | 0.00 | 0.00 | 0.00 | 60 | 1012.4 |
| 20260902081512 | 81 | 146 | 3.0 | 8.0 | 0.00 | 0.00 | 0.00 | 59 | 1012.3 |
| 20260902080018 | 82 | 161 | 3.0 | 9.0 | 0.00 | 0.00 | 0.00 | 59 | 1012.3 |
| 20260902074513 | 81 | 143 | 3.0 | 7.0 | 0.00 | 0.00 | 0.00 | 59 | 1012.3 |
| 20260902073024 | 81 | 189 | 2.0 | 7.0 | 0.00 | 0.00 | 0.00 | 60 | 1012.4 |
| 20260902071512 | 81 | 164 | 1.0 | 3.0 | 0.00 | 0.00 | 0.00 | 60 | 1012.3 |
| 20260902070009 | 81 | 184 | 1.0 | 5.0 | 0.00 | 0.00 | 0.00 | 59 | 1012.3 |
| 20260902064507 | 81 | 164 | 1.0 | 4.0 | 0.00 | 0.00 | 0.00 | 60 | 1012.5 |
| 20260902063012 | 81 | 158 | 1.0 | 3.0 | 0.00 | 0.00 | 0.00 | 61 | 1012.5 |
| 20260902061504 | 82 | 146 | 1.0 | 3.0 | 0.00 | 0.00 | 0.00 | 60 | 1012.6 |
| 20260902060127 | 83 | 159 | 0.0 | 4.0 | 0.00 | 0.00 | 0.00 | 58 | 1012.5 |
| 20260902054559 | 83 | 155 | 1.0 | 5.0 | 0.00 | 0.00 | 0.00 | 56 | 1012.5 |
| 20260902053058 | 83 | 158 | 2.0 | 4.0 | 0.00 | 0.00 | 0.00 | 56 | 1012.4 |
| 20260902051556 | 83 | 179 | 2.0 | 5.0 | 0.00 | 0.00 | 0.00 | 55 | 1012.5 |
| 20260902050054 | 83 | 179 | 3.0 | 6.0 | 0.00 | 0.00 | 0.00 | 55 | 1012.4 |
| 20260902044554 | 83 | 170 | 2.0 | 6.0 | 0.00 | 0.00 | 0.00 | 55 | 1012.3 |
| 20260902043055 | 84 | 185 | 1.0 | 6.0 | 0.00 | 0.00 | 0.00 | 55 | 1012.2 |
| 20260902041607 | 85 | 189 | 3.0 | 6.0 | 0.00 | 0.00 | 0.00 | 54 | 1012.2 |
| 20260902040053 | 86 | 168 | 3.0 | 6.0 | 0.00 | 0.00 | 0.00 | 53 | 1012.3 |
| 20260902034554 | 86 | 156 | 2.0 | 5.0 | 0.00 | 0.00 | 0.00 | 53 | 1012.3 |
| 20260902033056 | 86 | 203 | 2.0 | 5.0 | 0.00 | 0.00 | 0.00 | 53 | 1012.2 |
| 20260902031551 | 88 | 205 | 3.0 | 6.0 | 0.00 | 0.00 | 0.00 | 50 | 1012.1 |
| 20260902030051 | 89 | 193 | 3.0 | 6.0 | 0.00 | 0.00 | 0.00 | 49 | 1011.9 |
| 20260902024550 | 89 | 147 | 2.0 | 6.0 | 0.00 | 0.00 | 0.00 | 49 | 1011.8 |
| 20260902023050 | 90 | 176 | 3.0 | 7.0 | 0.00 | 0.00 | 0.00 | 49 | 1011.8 |
| 20260902021552 | 90 | 167 | 4.0 | 8.0 | 0.00 | 0.00 | 0.00 | 48 | 1011.6 |
| 20260902020049 | 91 | 170 | 2.0 | 6.0 | 0.00 | 0.00 | 0.00 | 48 | 1011.6 |
| 20260902014552 | 92 | 191 | 1.0 | 4.0 | 0.00 | 0.00 | 0.00 | 48 | 1011.4 |
| 20260902013048 | 92 | 166 | 2.0 | 6.0 | 0.00 | 0.00 | 0.00 | 46 | 1011.3 |
| 20260902011547 | 92 | 182 | 3.0 | 6.0 | 0.00 | 0.00 | 0.00 | 46 | 1011.2 |
| 20260902010047 | 93 | 176 | 1.0 | 5.0 | 0.00 | 0.00 | 0.00 | 45 | 1011.1 |
| 20260902004547 | 94 | 176 | 1.0 | 6.0 | 0.00 | 0.00 | 0.00 | 43 | 1011.3 |
| 20260902003053 | 96 | 158 | 2.0 | 7.0 | 0.00 | 0.00 | 0.00 | 42 | 1011.2 |
| 20260902001544 | 97 | 185 | 3.0 | 6.0 | 0.00 | 0.00 | 0.00 | 40 | 1011.4 |
| 20260902000056 | 98 | 117 | 2.0 | 7.0 | 0.00 | 0.00 | 0.00 | 39 | 1011.5 |
| 20260901234542 | 98 | 149 | 2.0 | 6.0 | 0.00 | 0.00 | 0.00 | 38 | 1011.5 |
| 20260901233042 | 99 | 137 | 2.0 | 6.0 | 0.00 | 0.00 | 0.00 | 37 | 1011.5 |
| 20260901231548 | 99 | 197 | 3.0 | 10.0 | 0.00 | 0.00 | 0.00 | 37 | 1011.5 |
| 20260901230042 | 99 | 189 | 5.0 | 11.0 | 0.00 | 0.00 | 0.00 | 36 | 1011.6 |
| 20260901224541 | 99 | 189 | 5.0 | 12.0 | 0.00 | 0.00 | 0.00 | 34 | 1011.6 |
| 20260901223040 | 99 | 218 | 6.0 | 14.0 | 0.00 | 0.00 | 0.00 | 34 | 1011.6 |
| 20260901221540 | 100 | 208 | 4.0 | 14.0 | 0.00 | 0.00 | 0.00 | 34 | 1011.6 |
| 20260901220106 | 100 | 205 | 5.0 | 15.0 | 0.00 | 0.00 | 0.00 | 34 | 1011.6 |
| 20260901214538 | 99 | 155 | 7.0 | 18.0 | 0.00 | 0.00 | 0.00 | 35 | 1011.6 |
| 20260901213101 | 100 | 201 | 9.0 | 16.0 | 0.00 | 0.00 | 0.00 | 34 | 1011.8 |
| 20260901211535 | 100 | 165 | 7.0 | 17.0 | 0.00 | 0.00 | 0.00 | 34 | 1012.0 |